Wind_Speed
41 41 40 40 42 42 42 41 41 40 40 40 40 39 39 39 38 38 38 38 38 39 38 39 41 41 41 41 41 41 41 41 42 43 43 43 43 42 42 41 41 41 41 41 41 42 41 41 40 41 42 42 41 40 39 39 38 37 37 36 35 36 36 37 37 36 36 36 35 36 35 35 35 34 34 34 34 33 33 32 31 31 30 31 31 32
41 40 40 41 43 44 44 43 43 43 42 42 42 42 42 41 40 39 39 39 40 40 40 41 42 43 43 43 43 43 43 43 43 43 43 43 43 42 41 40 39 39 38 38 38 38 37 36 36 36 37 38 37 36 35 34 33 32 31 30 30 32 32 33 33 33 33 33 32 32 32 32 31 31 31 31 31 31 31 31 30 30 29 30 30 31
41 39 40 42 44 45 44 44 44 44 44 44 44 44 43 42 41 41 41 41 42 42 42 43 44 44 44 45 44 44 44 44 44 44 44 43 43 43 42 40 39 38 37 37 37 36 35 35 35 35 36 36 34 33 32 30 28 27 27 27 28 29 29 29 30 30 30 30 29 29 28 28 28 28 29 29 29 30 30 30 29 29 28 28 29 30
39 38 39 41 42 43 43 44 44 44 44 44 45 45 44 43 43 43 42 42 43 45 45 45 46 46 45 45 45 45 44 44 44 44 44 44 43 43 42 41 40 39 38 38 38 37 36 36 36 35 35 34 31 29 27 25 24 24 25 26 26 26 27 27 27 27 27 26 26 26 25 25 25 25 26 26 27 27 27 27 27 27 27 27 28 29
37 37 37 38 39 41 41 42 43 43 43 43 44 45 44 44 44 44 43 44 45 46 46 46 47 47 46 46 46 46 46 46 46 46 45 45 44 44 44 43 42 41 41 41 40 39 38 38 37 35 34 32 29 26 24 21 21 22 24 26 26 24 24 25 25 25 24 23 23 23 23 22 22 22 22 23 24 25 25 25 25 26 26 27 27 28
36 36 36 36 38 39 40 40 40 41 41 41 42 42 42 42 43 43 43 44 46 47 46 47 49 48 47 48 47 48 48 48 48 47 46 46 46 46 46 46 45 44 44 43 42 41 40 39 38 37 35 33 30 27 24 21 20 21 24 26 25 23 23 23 23 22 22 22 22 22 22 21 21 21 21 22 23 24 24 25 25 25 26 27 28 28
37 37 37 36 37 39 39 39 38 39 39 39 40 39 39 39 39 40 40 42 43 44 44 46 49 48 48 49 48 48 49 49 49 48 47 48 48 48 48 48 47 47 46 45 44 44 43 42 41 40 38 36 32 29 26 23 22 23 24 26 25 23 23 23 22 22 22 22 22 22 22 22 22 22 23 23 23 24 25 25 26 26 27 28 28 29
38 38 38 38 39 40 39 39 39 39 39 39 39 38 38 37 37 37 37 38 39 39 41 43 45 46 46 48 48 48 49 49 49 48 48 49 49 49 49 49 49 49 48 47 46 46 45 45 44 43 41 38 36 33 30 28 26 26 26 26 25 24 24 24 22 22 23 23 23 23 24 24 25 25 25 25 25 25 26 26 27 27 28 29 30 30
40 40 40 40 41 41 41 40 40 40 41 41 39 39 39 38 37 37 37 37 37 38 39 39 41 42 42 44 45 46 47 47 47 47 48 48 48 49 49 49 49 50 50 50 49 48 48 47 47 45 43 41 40 37 34 32 30 30 29 28 27 27 27 26 25 24 24 25 25 25 25 26 26 27 27 27 27 27 27 27 28 28 29 29 31 31
42 42 42 42 43 43 42 42 43 42 43 43 41 41 41 40 40 39 39 39 39 39 40 39 39 39 40 41 43 44 44 43 43 45 46 47 48 48 48 48 49 50 51 52 51 50 49 48 48 47 45 44 44 41 39 36 34 33 33 32 31 31 30 29 28 28 28 28 28 28 28 28 28 28 28 29 29 28 28 29 29 29 29 30 31 31
44 44 44 44 44 44 44 44 44 44 45 44 43 43 43 43 43 42 42 42 42 42 43 42 40 40 41 42 43 45 44 42 41 41 42 44 45 46 47 48 49 50 51 52 52 52 50 49 49 48 46 46 46 44 42 40 38 38 38 37 36 35 33 32 31 31 31 31 32 32 31 31 31 30 30 30 30 30 30 30 30 30 31 31 31 32
46 46 46 46 47 47 46 46 46 45 46 45 45 46 46 45 45 44 45 45 45 45 45 44 43 42 44 44 45 46 46 45 44 43 42 42 43 43 45 46 47 49 51 52 52 52 51 50 50 49 48 47 47 46 45 44 42 42 43 42 41 39 37 36 35 34 34 35 35 36 35 35 34 34 34 33 33 32 32 31 31 32 32 33 32 32
48 47 47 48 48 48 48 48 47 47 46 46 47 48 47 48 47 46 47 47 47 47 47 47 46 45 46 47 47 48 48 49 48 47 46 45 45 44 44 44 45 47 49 51 51 51 51 51 51 51 50 49 49 48 47 46 45 45 46 46 44 43 41 40 38 38 37 38 38 39 39 38 37 37 37 37 37 36 36 35 33 33 34 34 34 34
50 50 50 49 49 49 49 49 48 48 48 47 48 49 47 49 49 47 48 48 48 50 49 48 48 47 48 50 50 50 51 52 52 52 51 50 49 49 47 47 47 47 48 49 50 50 50 50 51 51 51 51 51 50 48 47 46 47 47 47 46 46 45 44 43 42 41 41 41 41 41 41 41 40 40 40 40 40 40 39 38 37 36 36 36 36
52 52 52 51 50 51 50 49 49 49 49 48 49 49 48 50 50 48 48 48 49 51 50 49 49 49 50 52 51 52 53 54 55 55 54 53 53 52 51 51 50 50 50 51 50 50 49 49 50 50 51 51 51 50 50 49 49 49 48 48 47 46 46 46 46 45 44 44 44 44 43 43 43 43 43 43 43 44 44 43 42 41 40 39 38 39
54 53 53 52 51 51 50 50 50 49 50 50 49 50 51 52 51 50 49 50 50 52 50 49 50 51 52 53 52 53 54 55 56 56 56 56 55 54 54 54 53 53 53 54 54 53 52 51 52 52 52 52 51 51 51 51 51 51 51 50 49 47 47 47 47 47 47 47 46 46 46 46 46 45 45 45 45 46 46 46 45 44 44 43 42 41
53 52 52 52 51 51 51 50 50 50 50 51 50 51 52 51 52 52 51 51 52 52 52 51 52 53 54 54 54 56 56 57 57 57 58 58 57 56 56 56 56 56 55 56 56 56 55 55 55 55 54 54 54 53 52 52 52 52 51 50 50 49 49 49 49 49 49 48 48 48 49 49 49 48 48 48 48 48 47 47 47 46 46 45 45 44
51 51 51 51 50 50 51 50 50 50 51 51 51 51 52 51 52 53 53 52 53 53 53 53 53 55 56 56 57 58 58 58 59 59 59 60 59 59 58 58 58 57 57 57 57 58 58 58 58 57 57 57 57 56 55 54 54 54 53 52 51 51 51 50 50 50 50 50 50 50 50 50 50 51 51 51 51 50 49 49 48 48 48 47 47 47
49 50 50 50 49 49 50 50 50 50 50 51 51 51 52 52 53 53 53 52 53 54 53 53 54 55 57 58 59 59 58 58 59 59 60 60 60 60 60 60 59 59 59 58 58 58 60 61 60 58 58 58 59 58 57 56 57 57 57 55 54 53 53 53 52 52 51 51 51 50 50 50 51 52 52 52 52 52 52 52 52 51 50 50 49 49
48 49 49 49 49 49 50 49 49 50 50 50 50 51 52 52 53 54 53 53 54 54 53 53 53 54 56 58 59 58 56 56 57 58 58 59 60 60 60 60 60 59 59 59 58 58 60 61 61 60 58 59 60 60 59 58 58 60 60 59 58 57 56 56 56 56 55 54 54 53 52 52 52 52 53 53 54 54 54 54 54 54 54 53 52 52
47 48 49 49 49 50 50 49 49 50 50 51 51 52 52 53 53 54 53 53 54 54 53 52 50 51 55 56 56 55 54 54 55 56 56 57 57 58 58 58 58 58 58 58 57 58 58 59 60 60 59 58 59 60 61 60 60 61 62 62 60 59 59 59 59 59 58 57 57 56 55 55 55 54 54 55 55 55 55 55 55 55 55 56 55 55
48 48 49 48 49 51 50 50 50 51 52 52 53 53 53 54 54 53 52 52 53 52 51 50 47 49 53 53 52 53 53 53 53 53 54 54 54 55 55 55 56 56 56 56 56 57 57 57 58 58 58 58 58 59 60 61 61 61 62 62 61 60 61 61 61 61 60 60 59 59 59 59 58 58 57 57 58 58 57 56 56 56 57 58 58 58
49 49 49 49 50 51 51 51 52 52 53 53 54 53 53 54 54 53 52 52 51 49 49 49 47 48 50 50 50 52 52 52 51 51 51 52 52 53 53 53 54 54 54 54 55 55 55 56 56 56 56 56 55 56 57 59 60 59 59 60 60 60 61 61 61 62 61 61 61 61 61 62 62 61 61 61 62 61 60 58 58 58 59 59 60 60
51 50 50 50 51 52 52 53 53 53 54 54 53 53 53 53 53 53 53 53 51 48 48 49 48 48 49 49 50 50 50 51 51 50 51 51 51 52 52 52 52 52 52 53 53 53 53 54 54 53 53 53 52 53 53 55 57 56 55 57 57 56 56 57 59 60 60 60 61 61 62 62 62 63 63 64 65 64 63 61 61 61 62 62 62 62
52 52 51 53 53 53 54 54 54 54 54 53 53 52 53 53 53 53 53 53 52 49 49 49 49 49 50 49 50 51 51 51 52 51 51 52 52 52 52 52 51 51 52 52 52 52 52 52 52 52 52 51 51 51 51 53 54 54 53 55 54 53 53 54 56 57 58 58 59 59 59 60 61 63 64 65 66 65 64 64 64 65 65 65 65 64
54 53 53 55 55 54 55 55 55 55 54 54 54 53 54 54 54 53 53 53 52 50 50 50 51 52 52 51 53 54 53 54 53 52 52 52 52 52 52 53 52 52 53 53 53 53 53 53 53 53 52 52 52 52 52 53 54 55 55 55 55 54 54 55 57 58 58 57 56 56 55 57 60 62 63 63 64 64 64 64 65 67 68 68 68 68
55 55 55 56 56 55 55 55 54 55 55 54 54 55 55 55 55 54 53 53 53 52 51 51 53 54 54 54 56 57 56 56 55 54 54 53 53 53 53 53 54 54 54 54 55 55 55 55 56 56 56 56 56 56 56 56 56 57 57 58 57 57 57 59 60 60 60 58 57 56 55 57 60 62 61 61 62 61 62 63 64 65 67 69 69 70
56 56 56 56 56 55 55 54 53 54 55 55 56 56 56 56 55 55 53 53 54 54 53 54 54 54 56 57 58 58 58 57 57 57 57 56 56 55 55 55 55 56 56 56 57 57 58 58 58 58 59 59 59 59 60 60 60 60 60 60 61 60 61 62 62 63 63 62 61 59 58 59 61 62 62 61 60 60 60 61 62 63 65 67 68 70
56 56 55 55 55 54 53 53 53 54 55 56 56 56 56 55 54 54 53 54 56 55 55 56 54 52 56 59 59 60 60 59 59 60 59 59 59 58 58 58 58 58 59 59 60 60 61 62 62 62 62 61 61 62 63 63 63 63 63 63 64 64 64 64 64 66 67 66 65 64 62 61 62 63 63 62 61 60 60 61 61 62 63 65 66 68
55 55 53 53 54 53 53 54 53 54 54 54 54 55 55 55 54 54 55 56 58 56 57 58 55 53 57 61 62 63 63 62 62 61 61 61 62 62 62 62 61 61 61 61 62 63 64 64 65 65 65 65 64 64 65 65 65 66 66 66 66 67 67 67 67 68 69 70 69 68 66 65 65 65 65 65 64 63 63 63 63 63 64 64 65 66
54 54 52 54 54 53 54 54 53 53 53 52 52 53 54 55 56 57 58 59 59 59 59 60 58 57 60 63 65 67 67 65 64 64 64 64 64 65 65 65 64 64 64 64 65 65 66 66 67 68 68 68 68 68 68 68 68 68 68 68 68 69 70 70 70 71 71 72 72 71 70 69 68 68 68 68 66 65 65 66 66 65 65 65 65 66
54 54 54 55 54 53 54 54 53 54 53 51 52 53 55 58 60 60 61 62 62 62 64 64 62 61 63 65 68 70 70 69 68 68 68 67 67 67 67 67 67 67 66 67 67 67 68 68 69 69 70 70 71 71 71 71 71 71 71 71 71 72 72 73 73 73 73 74 74 74 73 72 71 71 71 70 69 68 68 68 68 68 67 67 67 67
55 55 55 54 53 52 53 53 54 56 54 52 53 55 59 62 63 62 64 65 66 67 67 67 66 66 67 68 71 72 72 72 72 71 71 71 70 70 69 69 68 68 68 68 68 68 69 69 70 71 71 72 73 73 74 74 74 73 73 73 74 74 75 75 75 75 75 76 76 76 75 75 74 74 73 73 72 71 70 70 70 70 70 69 69 69
54 55 55 54 53 54 54 54 56 58 56 55 57 59 62 64 65 66 67 67 68 69 69 69 69 69 69 70 72 73 73 74 74 73 73 73 72 71 71 70 70 69 69 69 69 70 70 71 71 72 72 73 74 75 75 76 76 76 75 75 76 76 77 77 77 77 78 78 78 78 78 77 77 76 75 75 74 73 73 72 72 72 72 72 71 71
56 56 57 57 57 57 57 57 59 59 58 59 61 62 64 66 67 69 69 69 70 71 71 71 71 70 70 71 73 74 74 75 76 75 75 74 73 72 72 71 71 70 70 70 71 71 72 72 72 73 74 75 76 76 77 77 77 77 77 77 77 78 78 78 79 79 80 80 80 80 80 79 79 78 78 77 76 76 75 74 74 74 73 73 73 73
58 59 60 60 60 60 60 61 61 61 61 62 64 65 67 69 70 71 72 71 72 73 74 74 73 72 72 73 74 74 75 76 77 77 76 75 74 73 73 73 72 71 71 72 72 72 73 73 73 74 75 76 77 77 78 78 78 78 79 79 79 80 80 80 81 81 82 82 82 82 82 81 81 81 80 80 79 78 77 76 76 75 75 75 74 74
61 62 62 63 63 63 64 65 65 65 65 65 66 68 71 72 73 74 74 73 74 75 76 75 75 74 74 74 75 75 76 77 78 78 77 76 75 75 74 74 73 72 73 73 73 73 74 74 74 74 75 76 77 78 78 78 78 78 79 80 80 81 81 82 83 83 84 84 84 83 83 83 82 82 82 81 80 80 79 78 77 76 76 76 76 76
65 65 66 66 67 67 68 69 69 69 69 69 70 71 73 75 76 77 77 76 76 77 77 77 77 76 75 75 75 75 76 77 79 79 77 75 76 76 76 76 75 74 73 73 73 73 73 73 73 74 74 75 76 77 77 77 77 77 78 79 80 81 81 82 83 84 84 84 84 84 84 83 83 82 82 82 81 81 80 79 78 77 77 77 77 77
68 69 70 70 71 71 72 73 73 73 73 73 74 75 76 78 78 80 81 79 77 77 78 78 78 77 76 75 75 76 76 77 80 81 76 74 76 78 77 77 76 75 74 73 73 72 72 72 72 72 73 73 74 75 75 74 74 75 75 76 78 79 79 80 82 82 82 82 82 83 83 83 82 81 81 81 81 81 80 79 79 78 78 78 77 78
72 72 72 74 74 75 75 75 75 77 76 75 76 77 78 79 80 82 82 80 77 77 78 79 78 77 76 76 75 76 76 76 80 81 77 76 77 77 76 77 77 75 74 74 72 71 71 70 70 70 70 71 72 72 72 71 71 71 72 73 74 75 76 77 78 79 79 79 80 80 81 81 81 80 80 79 79 79 79 78 78 78 78 78 78 78
75 75 75 76 77 77 77 77 78 79 78 77 78 80 80 81 82 82 82 80 78 78 78 78 77 76 75 74 74 74 74 74 77 78 78 77 76 75 74 74 73 72 71 71 70 69 69 68 67 67 68 68 69 69 69 68 67 67 67 68 68 69 71 72 73 73 73 74 75 76 77 77 77 77 76 76 75 75 75 75 76 76 77 77 77 78
77 77 78 79 79 79 80 79 80 81 79 78 79 80 80 80 81 81 81 80 79 78 76 75 75 74 72 71 71 71 71 71 72 74 74 74 73 72 71 70 69 68 67 66 66 66 65 64 64 64 65 65 65 64 64 64 62 62 62 63 63 65 67 68 68 68 68 69 70 71 72 73 73 73 73 72 71 71 72 72 72 73 74 74 75 76
79 79 79 80 80 80 81 81 80 80 79 78 80 80 79 79 79 79 79 78 77 76 74 72 71 71 70 69 69 69 69 69 69 69 69 70 70 70 69 68 67 66 65 64 64 63 62 61 61 61 61 61 61 61 61 60 59 58 59 60 61 63 65 65 65 65 66 66 67 68 69 69 70 70 70 70 69 69 69 70 70 70 71 72 72 73
80 79 79 79 79 79 80 80 79 78 78 78 78 77 76 75 76 75 74 74 73 73 72 70 69 68 68 67 68 68 67 67 68 67 67 68 68 68 68 68 67 66 65 64 63 62 60 59 58 58 58 58 58 59 58 57 56 56 56 58 60 62 63 64 64 64 64 65 65 66 65 65 66 67 67 67 66 66 66 67 67 67 67 68 68 68
78 77 76 77 77 77 77 78 77 76 76 75 74 73 72 72 71 70 70 69 70 70 69 68 68 67 66 66 67 67 66 67 67 67 67 67 67 67 67 66 66 66 65 63 62 61 59 58 56 56 56 56 57 57 56 54 53 53 54 57 59 61 62 62 62 62 62 62 63 62 62 62 63 63 64 63 63 63 64 64 65 65 65 64 64 63
75 74 74 74 74 74 74 75 76 76 74 71 69 69 69 68 67 66 65 65 65 66 67 66 66 65 64 65 65 65 66 66 67 67 67 66 65 65 64 64 64 64 63 62 61 60 58 57 55 55 55 56 56 55 53 52 51 51 53 56 58 59 60 60 60 59 59 59 60 59 59 60 61 61 61 61 60 60 60 61 61 62 62 61 60 59
71 71 71 71 71 72 72 73 74 73 71 69 68 68 67 65 64 62 62 62 62 63 64 65 64 63 63 63 64 65 65 66 66 65 65 65 64 63 63 63 62 62 62 61 60 59 57 55 54 54 54 54 55 54 52 50 50 50 52 55 56 57 56 55 55 55 55 55 56 56 56 57 58 58 58 58 57 57 57 57 58 58 58 58 57 57
66 67 68 68 68 68 69 70 70 69 67 67 68 68 66 64 62 60 60 60 60 61 62 62 62 62 62 62 63 63 63 63 63 63 63 63 62 63 63 63 61 60 59 59 59 58 56 54 53 53 52 52 53 52 50 50 50 51 51 52 52 52 51 51 50 50 51 51 52 52 53 54 55 55 54 54 54 54 54 54 54 54 55 55 55 55
62 63 64 64 64 65 66 67 66 65 66 67 68 67 65 63 61 60 59 59 59 60 60 60 60 59 59 60 61 61 60 60 61 61 61 61 61 62 62 61 60 58 57 57 56 55 54 53 52 52 52 52 52 51 49 50 51 51 50 49 49 49 48 48 48 48 49 50 50 51 52 53 52 52 52 52 52 52 52 52 52 53 54 54 53 53
60 61 61 60 61 63 64 65 63 62 63 66 67 65 63 62 60 59 59 60 59 59 58 58 57 57 57 57 58 57 57 57 59 59 58 58 59 60 60 59 58 57 56 56 55 54 52 51 51 50 50 51 52 51 51 50 49 48 47 47 47 47 46 46 48 49 50 50 51 52 53 52 50 50 50 50 51 51 52 53 53 53 53 53 52 51
58 58 58 58 59 61 62 62 61 60 61 63 63 62 61 59 57 57 58 59 59 58 56 55 55 55 55 55 55 54 54 55 56 57 55 55 57 57 57 57 56 56 55 55 53 52 51 50 49 48 49 51 52 52 51 49 48 47 46 45 45 45 45 46 47 48 49 50 51 52 52 50 49 49 50 50 50 51 52 54 54 53 52 51 51 51
Wind_Direction
264 264 264 264 263 262 262 262 262 262 262 262 261 261 261 261 262 262 262 262 261 261 259 258 257 257 257 257 256 257 258 259 262 265 265 266 266 266 266 267 268 269 269 269 269 269 270 269 268 269 269 269 269 270 270 269 269 268 267 266 265 264 263 263 263 263 262 260 259 258 257 257 257 257 258 258 258 258 257 255 254 252 250 247 246 244
264 264 264 262 261 261 261 261 261 261 261 261 261 261 261 261 262 262 262 261 261 260 259 257 257 257 257 257 257 258 258 259 261 263 265 267 268 268 269 269 270 271 271 270 269 269 269 269 268 268 269 270 270 270 269 268 268 267 266 265 263 261 260 259 260 260 260 260 259 258 258 257 257 256 255 255 255 254 253 252 251 249 246 244 242 241
265 265 263 262 261 261 261 261 260 260 260 260 261 261 261 262 262 261 261 261 260 260 259 257 257 257 258 258 259 259 259 260 261 262 264 266 267 269 270 271 271 272 272 272 271 270 269 268 267 267 269 270 270 270 270 270 270 268 266 263 260 259 258 257 258 258 259 260 259 258 257 256 255 254 252 251 251 250 250 249 247 245 243 241 239 239
265 264 262 261 261 261 261 261 260 260 260 260 260 261 261 261 261 261 261 261 260 260 259 259 259 259 258 259 259 259 259 259 260 260 262 264 265 267 268 269 269 270 270 271 271 271 271 270 270 270 271 272 272 273 274 275 273 269 266 262 259 259 259 258 258 258 258 258 258 257 255 253 251 250 249 248 247 247 246 245 244 243 241 239 238 238
265 263 262 261 261 260 260 260 260 260 260 260 260 260 260 260 260 260 259 259 259 259 260 260 260 260 259 259 259 259 258 258 259 259 260 261 263 264 265 265 265 266 267 268 270 271 272 272 273 273 274 274 274 274 275 275 273 270 267 264 261 260 260 260 260 260 259 255 253 253 253 251 250 248 248 247 246 244 243 243 242 241 239 237 238 238
264 263 262 261 261 260 260 260 260 260 260 260 260 260 261 261 260 260 259 258 258 259 260 260 260 260 260 259 259 259 259 258 258 258 259 259 260 261 262 263 264 264 265 267 268 269 270 271 271 271 271 271 271 272 272 271 269 268 266 266 265 263 261 260 261 261 259 255 252 251 250 250 249 249 248 248 247 245 243 241 240 238 237 236 237 239
263 262 261 261 261 261 261 261 262 261 261 261 260 261 261 261 261 261 261 260 260 261 260 260 260 260 260 260 260 259 260 260 259 258 258 258 259 259 261 262 263 263 264 264 265 265 266 267 267 268 269 270 270 270 269 267 265 264 264 266 268 265 261 259 259 258 256 254 252 252 251 251 250 249 249 249 248 247 245 242 241 238 237 236 237 238
263 261 260 259 259 260 261 262 262 262 261 261 261 261 261 261 261 262 262 261 261 261 260 260 261 261 261 261 261 260 259 260 260 260 259 259 259 260 260 262 263 264 264 263 263 263 263 264 265 267 269 270 270 269 269 267 264 263 263 265 267 266 264 262 260 257 255 252 252 252 252 252 251 249 249 250 249 247 246 244 242 240 239 239 238 238
264 262 261 260 259 259 260 261 261 261 261 261 261 261 261 261 261 261 261 261 261 261 261 261 262 264 264 265 265 263 261 260 260 261 260 260 260 260 261 262 263 263 263 263 262 262 262 263 264 266 268 269 268 269 269 268 266 265 264 263 263 263 264 264 263 260 257 254 253 253 253 253 252 250 249 249 249 249 247 245 243 241 241 241 240 240
263 263 263 262 262 262 262 261 262 262 262 263 263 263 263 263 263 262 261 261 261 262 262 262 263 265 266 266 266 266 264 262 261 260 260 260 260 260 260 261 262 262 263 263 263 262 262 263 264 265 266 266 267 268 268 267 265 264 263 262 259 259 260 261 262 262 260 257 255 255 255 255 254 252 250 249 249 250 250 248 245 243 243 243 242 242
263 263 263 263 263 263 263 262 263 263 263 264 264 264 264 263 263 263 262 262 262 261 262 262 262 263 265 265 266 267 267 266 264 261 261 260 260 260 259 259 260 261 262 263 263 263 263 262 263 264 264 264 265 266 265 264 262 262 261 260 259 258 258 257 258 258 259 258 257 257 257 257 256 256 254 252 250 250 250 250 249 247 246 245 244 244
264 264 263 262 262 262 262 262 262 262 263 264 264 264 263 263 262 262 262 262 261 261 261 262 262 261 262 263 264 265 266 266 265 264 262 262 261 260 260 259 259 260 261 262 263 264 264 264 263 263 263 262 263 263 262 262 260 258 258 258 258 258 257 256 255 255 255 256 256 256 257 257 257 257 256 255 254 253 253 252 251 249 248 248 246 245
266 265 264 263 262 262 262 262 262 262 263 263 263 263 263 263 262 262 262 262 262 262 261 261 261 261 261 262 263 264 264 265 265 265 264 263 262 261 260 259 259 260 260 261 262 263 264 265 265 264 263 263 262 261 261 260 260 258 258 258 258 257 256 255 253 252 252 252 253 254 254 255 256 257 256 256 255 255 254 253 251 249 248 248 247 246
267 266 265 264 263 263 262 262 262 261 261 261 262 262 263 263 263 262 261 262 262 262 261 261 261 262 261 261 261 262 263 264 264 265 264 263 262 261 261 260 259 259 260 261 261 261 262 263 264 264 264 263 263 262 261 259 258 257 257 258 257 257 256 255 253 251 250 249 250 250 251 252 253 254 254 254 254 254 253 253 251 249 247 247 246 245
267 267 266 265 264 263 262 262 262 262 261 261 261 262 262 262 262 262 261 261 261 261 261 261 261 261 261 260 260 261 262 262 263 264 264 264 263 262 262 261 260 259 260 260 260 260 261 262 262 263 263 263 262 262 261 260 258 257 256 256 255 255 255 255 254 252 250 248 248 248 249 250 250 251 251 252 252 253 253 252 251 250 249 247 247 246
267 266 266 265 264 263 263 262 262 262 262 262 262 262 262 262 263 263 262 262 262 262 262 262 262 261 260 261 260 260 260 261 262 262 263 263 263 262 262 261 261 260 260 260 260 260 260 261 261 262 262 262 262 261 260 260 259 258 257 256 256 255 254 253 253 253 252 250 249 248 248 249 249 249 249 250 250 251 252 252 252 252 252 251 249 249
266 265 265 264 264 264 263 262 262 262 262 262 261 261 262 263 264 264 263 263 263 264 264 264 263 263 262 262 262 261 261 261 261 262 262 263 262 262 261 261 261 260 260 260 261 261 261 260 260 260 261 261 262 262 262 262 261 261 260 259 258 257 256 254 254 253 253 252 250 249 249 249 249 249 248 248 249 249 250 250 251 251 252 252 252 251
265 265 264 264 263 264 264 263 263 263 263 263 262 263 263 263 264 264 264 264 264 264 264 264 264 264 263 263 262 261 261 261 261 262 262 263 263 262 262 261 261 260 260 260 260 261 261 260 260 260 260 261 261 262 262 262 263 263 262 261 260 260 259 258 257 256 255 254 253 251 250 250 250 249 248 248 248 248 249 249 250 250 251 251 251 251
264 264 264 264 263 263 263 264 264 264 264 265 265 265 265 265 265 265 265 265 266 266 266 265 265 265 265 264 262 261 261 261 261 261 261 262 262 262 262 261 261 260 260 259 259 260 261 260 260 259 260 261 261 261 261 261 262 262 262 261 260 260 260 260 259 258 257 256 256 254 253 252 251 251 250 250 249 248 248 248 248 249 249 250 250 251
264 264 264 264 264 263 263 263 264 264 264 265 265 266 266 267 267 267 266 266 266 267 266 266 267 267 266 265 264 263 262 262 261 260 260 260 260 260 260 260 260 260 259 259 259 259 260 260 260 259 259 260 260 260 260 259 260 260 261 260 260 259 259 260 260 259 258 257 257 256 255 254 253 253 253 252 251 250 248 247 248 248 248 248 249 249
263 263 263 264 265 265 264 264 264 265 265 265 265 265 266 266 267 267 268 267 266 266 266 265 265 266 266 265 265 264 262 261 261 260 260 259 259 259 259 259 259 259 259 258 257 257 257 259 260 259 258 258 259 260 260 259 258 258 259 259 259 259 259 259 259 259 259 258 258 257 257 256 255 254 254 253 253 252 251 249 249 248 249 249 248 248
263 262 263 264 264 265 266 266 266 266 267 267 267 267 267 267 267 266 266 266 266 266 266 265 262 262 264 265 266 265 263 261 260 260 259 259 259 259 258 258 258 258 258 257 257 256 256 256 258 259 258 257 258 259 260 260 259 258 258 259 259 258 258 258 258 259 259 259 259 258 258 257 256 255 254 253 253 252 251 250 250 249 249 249 249 249
263 262 262 263 264 266 267 268 268 269 269 269 269 270 269 269 269 268 267 266 265 265 266 265 262 260 262 263 264 265 265 264 262 260 259 259 258 258 258 258 258 258 258 258 258 257 257 256 257 257 259 258 258 258 259 260 260 260 260 260 259 258 258 258 258 258 258 258 258 258 258 257 256 256 255 254 253 252 251 250 250 250 249 249 249 249
262 262 262 263 264 266 267 268 268 269 269 269 270 270 270 270 271 271 271 270 269 268 267 266 265 264 263 264 264 265 266 266 264 263 261 260 259 258 258 258 258 259 259 259 258 259 259 259 258 258 259 259 259 259 259 260 261 262 261 261 261 260 260 259 258 257 256 255 255 255 256 256 257 256 255 254 254 253 252 252 251 251 250 250 249 249
262 262 263 264 265 266 267 267 268 268 268 269 269 269 269 270 270 271 272 272 272 272 271 271 270 269 267 268 268 267 266 265 265 264 263 262 262 261 260 260 259 259 260 260 260 260 260 260 261 260 260 260 260 260 260 261 262 263 263 263 263 262 261 261 260 258 256 254 254 254 254 255 255 254 253 253 253 253 253 253 252 252 251 251 250 250
262 263 263 264 265 265 266 266 267 268 268 268 268 268 268 268 268 268 268 270 271 271 271 272 272 271 271 271 270 269 268 267 266 265 264 263 263 263 263 263 262 261 261 262 262 262 262 262 262 262 262 261 261 261 261 261 262 263 263 263 263 263 263 262 261 260 259 257 256 254 254 255 256 254 253 253 253 252 252 252 252 252 252 251 251 251
262 263 263 264 264 265 265 265 266 266 267 267 267 267 267 267 267 267 268 268 268 268 268 268 268 269 270 269 269 269 269 269 268 268 267 266 264 264 263 263 264 263 263 263 263 263 263 262 262 263 263 262 262 261 261 260 261 261 262 262 262 262 262 262 262 262 261 260 258 257 255 255 256 256 255 254 254 253 252 252 251 251 251 251 251 251
263 263 263 264 264 264 264 264 264 265 266 266 265 265 265 266 266 267 267 267 266 266 266 265 264 266 267 267 266 267 267 268 268 268 267 267 266 265 264 263 263 263 263 263 263 263 263 262 260 260 261 261 262 262 261 261 260 260 260 260 261 260 260 261 262 262 262 262 260 258 257 256 257 258 258 257 256 255 253 252 252 252 251 251 251 251
264 263 264 264 264 264 264 264 264 264 264 265 265 266 266 266 266 266 266 265 265 264 265 265 264 265 267 267 267 266 265 264 264 265 265 266 266 266 265 264 263 263 263 263 263 263 263 263 262 260 259 259 259 260 261 261 261 261 260 260 260 260 260 260 261 262 262 262 262 261 260 259 259 259 260 259 258 258 256 255 254 253 252 251 251 251
264 264 264 264 264 264 264 264 263 263 263 264 265 266 267 267 267 267 266 266 266 266 266 267 267 266 266 268 268 267 266 265 265 265 265 266 266 266 265 265 264 264 263 263 263 263 262 263 263 263 262 261 260 259 259 259 260 261 261 261 261 261 261 260 260 260 261 262 263 263 262 261 261 260 260 260 260 259 259 258 256 255 254 253 253 252
264 264 264 264 264 264 264 264 263 263 262 263 264 265 267 269 269 268 268 268 268 269 269 269 268 268 267 268 269 269 269 269 268 268 267 266 266 266 266 266 265 264 264 263 263 262 262 262 263 263 264 263 263 262 261 260 260 260 260 260 260 261 261 261 261 261 261 262 263 263 263 262 262 261 261 261 261 260 260 260 259 258 257 256 255 254
265 265 264 264 264 264 264 264 265 264 263 264 265 267 268 268 268 269 270 271 271 271 271 271 271 270 269 269 270 270 271 271 270 270 269 268 267 267 266 266 265 265 264 263 263 263 263 262 263 263 263 263 263 263 262 262 261 260 260 260 259 260 260 260 261 261 261 262 262 263 263 263 262 262 262 262 262 261 261 261 261 260 259 258 258 257
265 265 264 264 264 263 264 265 266 266 267 267 268 269 269 269 270 271 272 272 273 272 272 273 273 272 271 271 271 271 271 271 271 270 270 269 268 268 267 266 266 266 265 265 264 263 262 262 261 261 261 262 262 262 262 262 261 261 260 260 260 260 260 260 260 261 261 261 262 262 263 263 263 263 262 262 262 262 261 261 261 261 260 260 259 258
264 264 264 265 265 264 265 265 266 268 269 270 269 269 270 271 272 272 271 272 272 272 272 272 272 272 272 272 272 272 272 272 271 270 270 269 269 269 268 268 267 266 266 265 264 263 263 262 261 261 261 261 261 261 261 261 262 261 261 261 260 260 260 261 261 261 261 261 261 262 262 262 262 262 262 262 262 262 261 261 261 261 260 260 259 259
265 265 265 266 266 266 266 266 267 268 269 270 269 269 270 270 270 270 271 271 272 272 272 272 272 273 273 273 273 273 273 273 273 272 271 270 270 269 269 268 268 267 266 265 264 264 263 263 262 262 261 261 261 261 261 261 261 262 262 262 262 261 261 261 261 261 261 261 261 261 261 262 262 262 262 262 262 262 262 261 261 260 260 260 260 260
266 267 267 267 267 267 268 267 268 268 268 268 268 269 269 269 269 270 270 271 271 272 272 272 273 273 273 273 273 273 273 273 273 272 272 271 270 269 269 268 268 267 266 265 265 264 263 263 262 262 262 262 261 261 261 262 262 262 262 262 262 262 262 262 261 261 261 261 261 261 261 261 262 262 262 262 262 262 262 261 261 261 260 260 260 260
266 266 267 268 268 268 268 268 268 268 268 268 268 269 269 270 270 271 271 271 271 271 272 272 273 273 273 273 273 273 273 273 273 272 272 272 271 271 270 269 268 267 266 266 265 264 264 263 263 262 262 261 261 262 262 262 262 262 262 262 262 262 262 262 262 262 261 261 261 262 262 262 262 262 262 263 263 262 262 261 261 260 260 260 260 260
266 266 267 267 268 268 268 269 270 270 270 270 270 270 271 271 272 272 272 272 272 272 273 274 274 273 273 273 273 272 272 272 272 271 271 272 273 272 271 270 269 268 267 267 266 265 265 264 264 263 262 262 262 261 261 261 261 261 262 262 262 262 262 262 262 261 261 262 262 262 262 262 262 262 262 262 262 262 262 262 261 261 260 260 260 260
267 268 268 268 269 269 269 270 271 271 271 272 272 272 272 273 273 273 273 273 273 274 274 274 274 274 274 273 273 272 272 272 272 272 272 272 271 271 271 271 271 271 270 269 268 267 266 265 265 264 264 263 263 262 261 261 261 261 261 261 261 261 261 261 261 261 261 261 261 261 261 261 261 261 261 261 261 261 261 261 261 261 260 260 259 259
269 269 269 269 270 270 270 271 271 271 272 272 272 272 273 273 273 273 273 274 275 275 274 274 274 274 274 273 273 272 272 272 272 273 273 271 270 270 271 271 271 272 272 271 271 270 269 268 266 265 264 264 263 262 262 261 261 260 260 260 260 260 260 260 260 259 260 260 260 260 260 260 260 260 260 260 260 260 260 260 260 260 259 259 259 258
270 270 271 271 271 271 271 271 272 272 272 273 273 273 273 273 274 274 275 275 275 274 274 274 274 274 273 273 272 272 272 272 272 273 273 272 271 271 271 271 271 271 271 271 271 270 270 269 268 267 265 264 263 263 262 262 261 260 260 259 259 259 259 259 259 259 259 259 260 260 260 260 260 261 261 260 260 260 260 260 259 259 259 258 258 257
270 271 271 271 272 272 272 272 272 273 273 273 273 273 274 274 275 275 276 276 275 274 274 274 274 274 274 274 273 273 272 272 271 272 273 273 273 273 272 272 271 271 270 270 269 269 268 268 267 266 266 265 264 264 263 263 262 261 261 260 259 259 258 258 259 259 259 259 259 259 259 259 260 260 260 259 259 259 259 258 258 258 257 257 257 256
271 271 271 272 272 273 273 273 273 274 274 274 273 274 274 274 274 274 275 275 275 275 275 275 275 275 274 274 274 273 272 272 272 271 272 273 273 273 273 273 272 271 271 270 269 268 267 266 266 266 265 265 265 264 263 263 263 262 262 261 260 259 258 258 257 257 257 257 257 257 257 257 258 258 258 258 258 258 258 258 258 257 257 256 256 256
271 271 272 273 273 274 274 274 274 275 275 274 274 274 274 274 274 274 274 275 276 276 276 276 275 275 274 274 273 273 273 273 272 272 271 272 272 272 273 273 273 272 271 271 270 269 268 267 266 266 265 265 265 264 264 263 262 262 262 261 260 259 259 258 257 257 257 257 257 257 257 257 258 258 258 258 258 258 258 258 258 258 257 257 256 256
272 273 273 274 275 275 275 276 276 276 275 274 274 274 274 274 274 274 274 275 275 275 275 275 274 274 274 273 273 273 273 273 273 272 272 272 272 272 272 272 272 272 271 271 270 269 269 268 267 266 266 266 265 264 264 263 263 262 261 260 259 259 258 258 258 258 258 258 258 259 259 259 258 258 258 258 257 257 257 257 257 258 258 257 257 256
273 274 275 275 276 276 276 276 276 276 276 276 276 276 275 275 274 275 275 274 274 274 274 274 274 273 273 273 272 272 272 272 272 272 272 272 272 272 271 271 271 271 271 270 270 269 268 268 267 267 266 266 265 265 264 263 262 261 259 258 258 257 257 257 257 258 258 258 259 259 259 259 259 258 258 258 257 257 257 257 257 257 257 258 258 257
274 275 275 275 275 275 275 275 276 276 278 278 278 277 276 276 275 275 275 274 274 273 273 273 273 273 272 272 272 272 271 271 271 271 271 272 272 271 271 270 269 269 269 270 270 270 269 269 268 267 266 265 265 265 265 264 262 259 257 257 257 257 257 258 258 258 258 258 258 258 258 258 258 258 258 258 257 257 256 256 256 256 256 257 257 256
274 274 275 275 275 275 275 276 276 277 279 279 278 278 278 278 277 277 276 275 274 273 273 272 272 271 271 271 270 270 270 270 270 270 270 270 270 270 270 269 269 269 269 269 269 270 270 270 269 268 266 265 265 264 264 263 261 259 257 257 257 258 259 259 259 259 259 258 258 258 257 257 257 257 257 257 256 256 255 255 255 255 255 255 254 254
274 274 274 275 275 276 276 276 276 277 278 278 277 277 278 278 278 278 277 276 274 273 272 271 271 270 270 269 269 269 269 269 269 269 269 269 269 269 269 269 270 270 269 269 268 268 268 267 266 266 265 265 264 263 262 260 259 258 258 259 259 259 260 260 261 261 260 259 259 258 257 256 256 256 256 257 257 257 256 256 255 255 254 254 254 254
274 274 275 275 276 276 275 275 276 276 276 275 275 276 277 277 278 278 277 276 275 273 272 272 272 272 271 270 269 269 269 268 268 267 267 267 267 267 267 268 268 268 268 267 267 266 266 264 263 263 263 263 263 262 262 261 260 260 259 259 259 260 260 260 260 260 259 259 258 257 257 256 256 256 256 256 256 256 256 256 255 254 255 255 256 255
275 276 276 276 275 275 275 276 276 276 274 274 275 276 276 277 277 276 276 275 275 275 275 274 273 273 272 271 270 269 268 268 267 267 266 265 264 264 264 265 265 265 265 265 265 265 264 263 262 261 260 259 259 260 261 263 264 263 262 261 260 260 259 258 257 257 257 256 256 256 257 257 257 256 255 254 253 253 253 254 254 254 254 255 255 254
Height
10592 10593 10595 10595 10594 10593 10594 10596 10596 10596 10597 10597 10598 10598 10599 10599 10600 10601 10602 10603 10604 10604 10605 10605 10604 10604 10604 10605 10605 10605 10604 10603 10602 10602 10602 10603 10603 10604 10605 10605 10606 10606 10607 10608 10607 10606 10607 10608 10607 10606 10607 10609 10610 10611 10613 10613 10613 10614 10614 10615 10615 10615 10615 10615 10616 10617 10618 10620 10621 10622 10623 10623 10624 10624 10625 10626 10626 10627 10628 10630 10632 10633 10635 10636 10636 10637
10588 10589 10590 10590 10588 10588 10589 10591 10591 10592 10592 10593 10593 10594 10594 10595 10597 10598 10598 10599 10599 10599 10601 10601 10600 10600 10600 10600 10601 10601 10601 10600 10599 10598 10597 10598 10599 10599 10600 10601 10602 10602 10602 10602 10602 10602 10602 10602 10602 10602 10603 10604 10606 10607 10607 10608 10608 10609 10609 10610 10610 10610 10611 10611 10612 10613 10613 10615 10617 10618 10619 10620 10620 10621 10622 10622 10623 10624 10625 10626 10628 10629 10630 10632 10632 10633
10583 10585 10585 10584 10583 10583 10584 10585 10586 10587 10588 10588 10589 10589 10590 10591 10593 10593 10594 10595 10595 10594 10595 10595 10595 10596 10596 10595 10596 10597 10597 10597 10596 10595 10594 10594 10594 10594 10596 10597 10597 10597 10597 10596 10596 10597 10597 10597 10598 10598 10599 10601 10602 10603 10604 10604 10605 10605 10605 10605 10606 10606 10606 10607 10608 10609 10610 10611 10612 10613 10615 10616 10617 10618 10618 10619 10619 10620 10621 10622 10624 10625 10626 10628 10629 10630
10578 10580 10579 10579 10578 10578 10579 10579 10580 10582 10583 10584 10584 10584 10586 10587 10588 10588 10590 10590 10589 10589 10589 10590 10590 10590 10591 10591 10591 10592 10593 10593 10592 10591 10591 10590 10590 10590 10591 10592 10592 10592 10592 10591 10591 10591 10592 10592 10593 10595 10596 10597 10599 10600 10601 10602 10601 10601 10600 10601 10601 10602 10602 10604 10604 10605 10606 10608 10609 10609 10610 10612 10613 10614 10614 10615 10616 10616 10617 10619 10620 10621 10623 10624 10625 10627
10574 10574 10574 10574 10573 10573 10573 10574 10575 10576 10578 10579 10579 10579 10581 10582 10583 10584 10585 10584 10583 10583 10583 10585 10584 10584 10586 10586 10586 10587 10587 10587 10587 10587 10587 10587 10586 10585 10585 10586 10587 10587 10587 10587 10587 10587 10587 10588 10589 10591 10592 10594 10595 10597 10598 10598 10598 10597 10597 10597 10598 10599 10599 10600 10601 10601 10603 10604 10605 10605 10606 10608 10609 10610 10611 10611 10612 10613 10614 10615 10616 10618 10619 10620 10622 10623
10569 10569 10569 10569 10568 10568 10569 10569 10571 10572 10573 10574 10574 10574 10576 10577 10578 10578 10580 10579 10578 10578 10579 10579 10577 10578 10581 10580 10581 10581 10581 10582 10582 10582 10583 10582 10581 10580 10580 10581 10582 10582 10583 10583 10583 10583 10583 10584 10584 10586 10587 10589 10591 10593 10594 10595 10595 10594 10593 10593 10594 10595 10596 10596 10597 10598 10599 10600 10601 10602 10603 10604 10605 10606 10607 10608 10608 10609 10610 10611 10613 10614 10615 10617 10618 10619
10564 10564 10564 10565 10564 10563 10564 10565 10566 10567 10568 10569 10569 10570 10571 10572 10573 10573 10574 10574 10574 10574 10575 10573 10571 10573 10575 10574 10576 10577 10576 10576 10576 10577 10578 10577 10577 10576 10576 10576 10577 10577 10578 10578 10578 10578 10578 10579 10579 10580 10582 10584 10587 10589 10590 10591 10591 10590 10590 10590 10591 10592 10592 10593 10594 10595 10595 10596 10597 10598 10599 10600 10602 10603 10603 10604 10605 10606 10607 10608 10609 10611 10612 10613 10614 10615
10559 10559 10559 10560 10559 10559 10560 10561 10562 10562 10563 10563 10565 10566 10567 10568 10568 10569 10569 10569 10569 10569 10569 10567 10566 10568 10569 10568 10570 10571 10571 10570 10571 10573 10573 10572 10572 10572 10572 10572 10572 10572 10572 10573 10573 10573 10573 10574 10574 10575 10577 10579 10581 10583 10585 10587 10587 10587 10587 10587 10587 10588 10589 10590 10591 10592 10592 10593 10594 10595 10596 10597 10598 10599 10600 10601 10602 10603 10604 10605 10606 10607 10608 10610 10611 10612
10553 10554 10554 10554 10554 10555 10556 10557 10557 10558 10557 10558 10560 10561 10562 10564 10564 10565 10565 10564 10564 10564 10563 10563 10562 10562 10563 10563 10563 10564 10565 10566 10567 10568 10568 10567 10568 10568 10569 10569 10568 10567 10566 10566 10567 10567 10568 10569 10569 10571 10573 10574 10575 10578 10580 10582 10583 10583 10583 10584 10584 10585 10585 10586 10587 10588 10589 10589 10591 10591 10592 10593 10594 10595 10596 10597 10598 10599 10600 10601 10602 10604 10605 10606 10607 10608
10548 10548 10549 10549 10549 10550 10551 10552 10552 10553 10552 10553 10556 10557 10557 10559 10559 10559 10559 10559 10559 10559 10558 10559 10559 10559 10558 10558 10557 10556 10558 10560 10562 10562 10562 10562 10563 10563 10564 10564 10562 10561 10560 10560 10561 10562 10563 10564 10565 10566 10569 10569 10570 10572 10575 10577 10578 10578 10578 10579 10580 10581 10582 10583 10584 10585 10586 10586 10587 10588 10588 10589 10590 10591 10592 10593 10594 10595 10596 10597 10599 10600 10601 10602 10603 10604
10542 10543 10544 10544 10544 10545 10546 10546 10547 10548 10548 10549 10551 10551 10552 10553 10553 10554 10554 10553 10554 10553 10553 10554 10555 10555 10553 10552 10551 10549 10551 10553 10554 10556 10556 10557 10557 10558 10558 10558 10557 10556 10555 10555 10555 10556 10558 10560 10560 10561 10563 10564 10565 10567 10569 10571 10573 10573 10573 10574 10575 10576 10578 10579 10581 10582 10582 10583 10583 10584 10584 10585 10586 10587 10588 10589 10590 10591 10592 10594 10595 10596 10597 10598 10599 10600
10536 10537 10538 10539 10539 10539 10540 10541 10542 10543 10543 10544 10545 10544 10545 10546 10547 10548 10547 10547 10548 10548 10548 10548 10549 10550 10548 10547 10546 10544 10545 10545 10546 10548 10549 10550 10551 10552 10552 10552 10552 10551 10550 10550 10550 10551 10552 10554 10555 10556 10558 10559 10560 10561 10563 10565 10567 10567 10567 10568 10570 10572 10574 10575 10576 10578 10578 10579 10579 10580 10580 10581 10582 10583 10584 10585 10587 10588 10588 10589 10590 10591 10592 10593 10594 10595
10530 10531 10532 10532 10533 10533 10534 10535 10536 10537 10538 10539 10538 10537 10539 10539 10540 10542 10542 10541 10542 10541 10542 10542 10543 10544 10543 10542 10541 10540 10539 10538 10539 10540 10542 10543 10544 10545 10546 10547 10547 10546 10545 10545 10546 10546 10547 10548 10549 10550 10551 10553 10554 10555 10557 10559 10561 10561 10561 10563 10565 10566 10568 10570 10571 10573 10574 10574 10574 10575 10576 10577 10578 10579 10580 10581 10582 10583 10584 10584 10585 10586 10587 10587 10588 10590
10523 10524 10525 10526 10526 10527 10528 10529 10530 10531 10532 10533 10531 10531 10533 10531 10532 10536 10536 10536 10536 10534 10535 10536 10537 10538 10537 10536 10536 10534 10533 10532 10532 10532 10534 10535 10537 10538 10539 10540 10540 10541 10540 10540 10540 10541 10542 10543 10543 10544 10545 10546 10547 10549 10551 10553 10555 10555 10555 10557 10559 10560 10562 10563 10565 10567 10568 10569 10569 10570 10571 10572 10573 10574 10575 10576 10577 10578 10578 10579 10579 10580 10581 10582 10583 10584
10516 10517 10517 10518 10520 10520 10521 10523 10523 10524 10524 10526 10525 10525 10526 10524 10525 10529 10529 10529 10529 10527 10528 10531 10531 10532 10530 10529 10530 10528 10527 10526 10525 10525 10526 10527 10529 10530 10532 10533 10533 10534 10533 10533 10534 10535 10537 10537 10537 10538 10538 10539 10540 10542 10543 10545 10547 10548 10549 10551 10552 10554 10555 10556 10558 10560 10561 10563 10564 10564 10565 10566 10567 10568 10570 10570 10571 10571 10572 10573 10574 10575 10576 10577 10577 10578
10509 10510 10509 10510 10512 10512 10514 10515 10516 10517 10517 10518 10519 10519 10518 10518 10519 10522 10522 10522 10521 10520 10522 10524 10524 10524 10523 10522 10523 10522 10521 10520 10518 10519 10519 10520 10521 10522 10524 10525 10526 10527 10527 10526 10527 10528 10530 10531 10531 10531 10531 10532 10533 10535 10536 10537 10539 10540 10541 10544 10546 10548 10549 10550 10551 10553 10554 10556 10557 10558 10559 10560 10561 10562 10563 10564 10565 10565 10566 10567 10568 10570 10571 10572 10573 10574
10501 10502 10502 10503 10504 10505 10506 10508 10508 10510 10510 10511 10512 10511 10511 10513 10512 10513 10514 10515 10514 10514 10516 10517 10517 10516 10515 10515 10516 10514 10513 10513 10513 10512 10512 10512 10513 10515 10516 10517 10517 10519 10520 10520 10520 10520 10523 10524 10524 10524 10525 10526 10526 10528 10529 10531 10531 10532 10534 10536 10538 10540 10541 10542 10544 10546 10547 10549 10551 10552 10553 10554 10555 10556 10557 10557 10558 10559 10560 10561 10562 10564 10565 10567 10568 10569
10494 10494 10494 10496 10498 10498 10498 10499 10501 10502 10503 10503 10504 10504 10505 10507 10505 10504 10507 10508 10507 10507 10509 10510 10510 10509 10508 10508 10507 10505 10506 10506 10506 10506 10506 10505 10505 10506 10508 10508 10509 10510 10511 10512 10513 10513 10513 10515 10516 10517 10518 10519 10520 10521 10523 10524 10524 10524 10526 10529 10531 10532 10533 10535 10536 10539 10540 10541 10543 10545 10546 10547 10548 10548 10549 10550 10551 10553 10554 10555 10556 10557 10559 10560 10561 10562
10488 10487 10487 10489 10491 10491 10491 10492 10493 10495 10495 10495 10496 10497 10497 10498 10498 10498 10500 10501 10500 10500 10502 10502 10502 10501 10500 10498 10497 10497 10499 10499 10499 10499 10499 10498 10497 10498 10499 10500 10500 10502 10503 10504 10506 10505 10504 10505 10507 10510 10512 10512 10512 10514 10516 10518 10518 10517 10518 10521 10523 10525 10526 10527 10528 10530 10532 10534 10535 10537 10539 10540 10541 10541 10542 10543 10545 10547 10548 10549 10549 10551 10552 10553 10554 10555
10482 10481 10481 10482 10483 10484 10485 10486 10486 10487 10488 10488 10489 10490 10489 10490 10490 10490 10492 10494 10492 10492 10494 10495 10495 10493 10489 10487 10487 10490 10492 10491 10490 10491 10491 10491 10490 10490 10491 10491 10492 10493 10494 10496 10497 10497 10495 10496 10497 10501 10504 10504 10504 10505 10508 10510 10511 10510 10510 10512 10515 10517 10518 10520 10520 10522 10524 10525 10527 10529 10531 10532 10533 10535 10536 10536 10537 10539 10540 10542 10543 10544 10545 10546 10547 10548
10476 10476 10475 10476 10476 10476 10477 10479 10480 10479 10480 10481 10481 10482 10482 10482 10482 10482 10484 10485 10484 10484 10486 10488 10489 10485 10479 10478 10480 10480 10482 10483 10482 10482 10482 10482 10483 10483 10483 10484 10484 10484 10485 10486 10488 10488 10488 10488 10488 10491 10495 10496 10496 10496 10497 10500 10502 10502 10502 10503 10506 10509 10510 10511 10512 10513 10515 10517 10519 10521 10522 10524 10525 10527 10528 10529 10529 10531 10533 10535 10537 10538 10538 10538 10539 10540
10470 10470 10469 10470 10469 10468 10470 10472 10472 10472 10472 10473 10473 10474 10474 10474 10475 10475 10477 10476 10476 10477 10478 10479 10482 10478 10472 10472 10472 10471 10472 10474 10474 10475 10475 10475 10475 10476 10476 10476 10476 10477 10477 10477 10479 10480 10481 10481 10481 10482 10485 10488 10489 10488 10488 10489 10491 10493 10495 10495 10498 10501 10502 10503 10504 10505 10506 10508 10510 10512 10513 10515 10516 10518 10520 10520 10521 10522 10525 10527 10529 10530 10531 10531 10532 10532
10462 10463 10463 10463 10462 10462 10463 10464 10464 10464 10464 10464 10465 10466 10466 10466 10466 10466 10468 10468 10468 10472 10471 10469 10472 10471 10466 10465 10465 10464 10465 10466 10467 10467 10468 10468 10468 10468 10469 10469 10469 10470 10470 10471 10471 10472 10473 10474 10474 10475 10476 10479 10481 10481 10481 10481 10481 10484 10486 10486 10489 10491 10493 10495 10496 10497 10498 10500 10501 10502 10504 10505 10506 10508 10511 10511 10512 10513 10516 10519 10521 10522 10522 10522 10523 10524
10455 10455 10457 10456 10456 10456 10456 10456 10456 10456 10456 10457 10458 10458 10457 10458 10458 10457 10458 10458 10459 10463 10462 10460 10462 10462 10460 10459 10459 10458 10458 10458 10458 10459 10459 10460 10460 10461 10462 10462 10463 10463 10464 10464 10465 10465 10466 10467 10468 10469 10470 10472 10473 10474 10474 10473 10473 10476 10477 10477 10479 10482 10484 10486 10486 10487 10489 10490 10491 10493 10495 10495 10497 10499 10500 10501 10502 10505 10508 10511 10512 10512 10513 10514 10515 10516
10447 10448 10450 10449 10449 10450 10449 10448 10449 10449 10449 10450 10450 10451 10450 10450 10450 10450 10449 10448 10450 10454 10453 10452 10454 10453 10452 10453 10452 10450 10451 10450 10450 10451 10452 10452 10453 10453 10455 10455 10456 10457 10456 10457 10458 10459 10460 10460 10461 10462 10463 10465 10466 10466 10467 10466 10466 10467 10468 10468 10470 10473 10475 10475 10476 10477 10479 10480 10481 10484 10486 10486 10486 10487 10487 10490 10493 10496 10498 10501 10502 10503 10503 10505 10506 10508
10440 10441 10442 10442 10442 10443 10442 10441 10442 10442 10442 10443 10442 10443 10443 10442 10443 10443 10443 10442 10443 10445 10446 10446 10445 10443 10443 10444 10443 10442 10442 10442 10443 10444 10444 10445 10446 10447 10448 10449 10450 10450 10450 10450 10451 10451 10453 10453 10454 10455 10456 10457 10458 10459 10459 10459 10459 10459 10460 10460 10461 10463 10465 10465 10466 10467 10468 10471 10473 10475 10477 10477 10475 10475 10478 10481 10483 10486 10489 10490 10492 10492 10493 10495 10498 10499
10432 10433 10434 10434 10434 10435 10434 10435 10436 10435 10435 10436 10435 10435 10434 10434 10434 10435 10436 10437 10436 10437 10439 10440 10438 10437 10436 10436 10434 10433 10434 10434 10434 10435 10436 10437 10439 10439 10440 10441 10442 10443 10443 10444 10445 10445 10446 10446 10447 10447 10448 10448 10449 10450 10451 10451 10451 10451 10452 10452 10453 10455 10455 10455 10456 10457 10458 10461 10463 10466 10468 10467 10466 10466 10469 10472 10474 10477 10479 10480 10481 10482 10484 10486 10488 10488
10424 10425 10425 10426 10426 10427 10427 10428 10429 10428 10427 10428 10428 10427 10427 10426 10427 10427 10429 10430 10428 10429 10431 10430 10431 10432 10430 10428 10427 10425 10426 10427 10426 10426 10427 10428 10429 10431 10432 10433 10434 10435 10435 10436 10437 10437 10437 10438 10438 10439 10440 10440 10441 10441 10441 10442 10443 10444 10444 10444 10444 10446 10446 10446 10447 10447 10448 10450 10452 10455 10457 10458 10458 10458 10460 10463 10465 10467 10469 10470 10471 10473 10474 10476 10477 10478
10415 10416 10418 10418 10418 10419 10420 10421 10422 10421 10420 10419 10419 10420 10419 10419 10420 10420 10421 10420 10418 10420 10422 10420 10424 10427 10423 10419 10419 10417 10417 10419 10418 10418 10420 10420 10421 10422 10423 10424 10425 10426 10426 10427 10427 10428 10428 10428 10428 10429 10431 10432 10433 10432 10432 10433 10433 10434 10435 10436 10436 10437 10438 10439 10438 10437 10437 10439 10441 10444 10447 10449 10449 10450 10451 10453 10455 10457 10458 10460 10462 10463 10465 10466 10467 10468
10406 10407 10410 10409 10409 10411 10412 10412 10413 10413 10413 10413 10412 10412 10411 10411 10412 10411 10411 10410 10409 10412 10413 10412 10417 10420 10414 10410 10410 10407 10407 10410 10410 10411 10413 10412 10412 10413 10413 10414 10416 10417 10418 10418 10418 10418 10418 10418 10418 10419 10420 10421 10423 10424 10424 10424 10424 10424 10425 10426 10427 10427 10428 10429 10429 10429 10428 10429 10431 10433 10436 10438 10439 10441 10442 10443 10445 10447 10448 10449 10451 10453 10455 10456 10458 10458
10398 10399 10401 10400 10401 10404 10403 10402 10404 10404 10405 10406 10406 10405 10404 10403 10401 10400 10400 10400 10401 10403 10403 10402 10407 10410 10405 10402 10400 10397 10397 10401 10401 10402 10403 10403 10403 10403 10404 10405 10406 10407 10408 10409 10409 10409 10409 10409 10409 10410 10410 10411 10412 10413 10414 10415 10415 10416 10416 10416 10417 10417 10417 10418 10419 10419 10419 10419 10421 10422 10425 10427 10429 10430 10431 10433 10435 10437 10438 10439 10441 10443 10444 10446 10447 10448
10390 10391 10392 10391 10393 10396 10394 10394 10395 10394 10397 10399 10399 10398 10396 10392 10391 10392 10392 10392 10393 10393 10392 10392 10397 10398 10395 10393 10391 10388 10388 10390 10391 10391 10391 10392 10393 10393 10394 10395 10396 10397 10398 10399 10399 10400 10400 10400 10400 10400 10401 10401 10401 10401 10402 10403 10404 10406 10406 10406 10407 10407 10407 10407 10408 10408 10409 10410 10410 10412 10414 10416 10418 10419 10421 10422 10424 10426 10428 10429 10430 10432 10434 10435 10436 10437
10382 10382 10382 10383 10386 10387 10386 10386 10386 10385 10388 10391 10391 10389 10385 10382 10383 10384 10383 10383 10383 10382 10382 10383 10385 10385 10385 10383 10380 10379 10380 10380 10380 10381 10380 10380 10382 10382 10383 10385 10386 10387 10388 10388 10389 10389 10390 10390 10390 10390 10390 10390 10390 10390 10390 10391 10392 10394 10395 10396 10396 10396 10396 10397 10397 10398 10398 10399 10400 10401 10403 10404 10406 10408 10409 10411 10413 10415 10417 10418 10420 10421 10422 10424 10425 10427
10373 10373 10374 10375 10377 10378 10378 10379 10377 10376 10380 10382 10381 10379 10376 10374 10374 10374 10373 10374 10374 10372 10372 10373 10374 10374 10375 10373 10369 10368 10369 10368 10368 10369 10369 10369 10371 10371 10372 10374 10375 10376 10377 10377 10377 10377 10377 10378 10379 10379 10380 10379 10379 10379 10379 10379 10380 10382 10384 10385 10385 10386 10386 10387 10387 10388 10388 10388 10389 10391 10392 10393 10395 10397 10398 10399 10401 10403 10405 10407 10408 10409 10411 10412 10413 10415
10365 10365 10365 10367 10368 10369 10370 10371 10369 10370 10373 10372 10370 10370 10368 10366 10365 10363 10363 10365 10365 10363 10361 10362 10364 10365 10364 10363 10360 10359 10358 10357 10355 10356 10357 10359 10360 10360 10361 10362 10364 10366 10366 10365 10365 10365 10366 10366 10367 10368 10368 10368 10367 10367 10368 10369 10370 10371 10372 10373 10374 10374 10375 10376 10376 10376 10377 10377 10378 10379 10381 10383 10384 10386 10387 10388 10390 10392 10394 10396 10397 10398 10399 10400 10401 10403
10356 10356 10356 10357 10358 10359 10360 10360 10360 10362 10364 10362 10361 10360 10358 10356 10355 10354 10354 10355 10355 10353 10352 10351 10353 10354 10354 10352 10351 10350 10348 10345 10343 10343 10344 10346 10347 10348 10349 10350 10352 10353 10353 10353 10353 10354 10354 10355 10356 10356 10356 10356 10356 10356 10356 10357 10359 10360 10361 10361 10362 10362 10363 10364 10364 10364 10364 10365 10366 10368 10370 10372 10373 10374 10375 10377 10379 10380 10382 10384 10385 10386 10387 10389 10390 10392
10347 10347 10347 10347 10348 10349 10349 10349 10350 10352 10353 10353 10353 10350 10347 10346 10344 10343 10343 10345 10344 10342 10341 10342 10343 10344 10344 10342 10341 10339 10337 10334 10331 10330 10332 10333 10335 10336 10336 10337 10340 10341 10340 10340 10341 10341 10342 10343 10344 10345 10345 10344 10344 10344 10345 10346 10348 10349 10350 10349 10349 10349 10350 10351 10351 10351 10352 10353 10355 10357 10358 10360 10362 10363 10364 10365 10367 10369 10370 10372 10374 10376 10377 10378 10379 10381
10338 10338 10338 10338 10338 10339 10338 10338 10339 10340 10340 10341 10341 10340 10337 10335 10333 10331 10330 10332 10334 10332 10332 10331 10331 10332 10332 10332 10331 10328 10326 10323 10318 10316 10321 10325 10323 10322 10322 10323 10325 10327 10327 10328 10329 10329 10330 10331 10332 10332 10332 10333 10332 10332 10333 10335 10337 10338 10338 10337 10336 10336 10337 10338 10338 10338 10339 10341 10343 10344 10346 10347 10349 10351 10353 10353 10355 10356 10358 10360 10362 10364 10366 10367 10369 10370
10329 10328 10328 10327 10327 10328 10328 10328 10328 10328 10328 10330 10329 10328 10326 10323 10322 10320 10317 10319 10323 10324 10321 10319 10319 10320 10319 10319 10319 10316 10315 10314 10305 10301 10312 10317 10311 10308 10310 10310 10310 10313 10314 10314 10316 10317 10318 10318 10319 10320 10320 10320 10320 10319 10321 10323 10324 10325 10326 10325 10324 10324 10325 10325 10324 10325 10327 10329 10330 10332 10333 10334 10336 10338 10340 10342 10343 10344 10346 10348 10351 10352 10354 10356 10358 10359
10318 10318 10318 10317 10317 10317 10317 10318 10318 10316 10317 10319 10317 10316 10315 10313 10310 10307 10304 10308 10313 10312 10308 10306 10306 10307 10307 10306 10306 10304 10304 10303 10294 10290 10298 10302 10298 10298 10300 10298 10298 10300 10301 10301 10302 10304 10304 10305 10306 10307 10307 10307 10306 10306 10307 10310 10312 10313 10313 10313 10313 10313 10312 10311 10311 10313 10316 10317 10318 10319 10320 10321 10323 10325 10328 10330 10331 10333 10335 10337 10339 10340 10342 10344 10346 10347
10306 10308 10307 10306 10305 10305 10305 10307 10306 10303 10304 10308 10306 10303 10303 10300 10297 10294 10293 10297 10299 10297 10296 10295 10293 10294 10295 10294 10294 10293 10292 10291 10287 10282 10283 10284 10285 10287 10288 10287 10288 10289 10289 10290 10290 10291 10291 10292 10292 10293 10293 10293 10293 10293 10295 10297 10299 10301 10301 10301 10301 10301 10300 10299 10300 10303 10305 10306 10307 10308 10309 10310 10311 10313 10316 10318 10320 10322 10324 10325 10327 10329 10331 10332 10334 10335
10295 10296 10296 10294 10293 10294 10293 10294 10293 10291 10293 10296 10293 10290 10290 10288 10285 10284 10283 10282 10282 10282 10283 10284 10282 10282 10282 10282 10282 10281 10279 10279 10278 10274 10272 10271 10272 10274 10274 10275 10277 10277 10277 10278 10278 10279 10280 10280 10280 10281 10280 10280 10281 10282 10283 10284 10287 10289 10289 10290 10290 10289 10287 10288 10290 10292 10293 10295 10296 10297 10298 10299 10300 10302 10304 10306 10309 10311 10312 10313 10315 10317 10318 10320 10321 10322
10283 10284 10284 10282 10282 10282 10281 10280 10280 10279 10281 10282 10279 10277 10278 10276 10273 10272 10271 10270 10269 10269 10270 10271 10271 10271 10271 10270 10269 10268 10267 10267 10266 10265 10264 10262 10261 10261 10261 10262 10263 10264 10265 10266 10266 10267 10268 10270 10270 10270 10270 10270 10270 10271 10272 10274 10277 10278 10278 10279 10278 10276 10275 10277 10278 10280 10281 10283 10284 10285 10287 10288 10290 10291 10293 10295 10298 10300 10302 10302 10304 10305 10307 10308 10309 10311
10271 10272 10273 10272 10271 10271 10269 10267 10267 10267 10267 10267 10265 10264 10265 10264 10262 10261 10261 10260 10259 10258 10258 10259 10259 10259 10259 10258 10257 10256 10256 10255 10254 10254 10254 10253 10251 10250 10250 10250 10251 10252 10252 10253 10254 10255 10257 10259 10261 10261 10261 10261 10261 10261 10262 10264 10267 10268 10269 10268 10266 10264 10265 10266 10267 10269 10271 10272 10273 10275 10277 10279 10280 10281 10283 10285 10288 10290 10291 10292 10293 10294 10296 10298 10299 10303
10259 10261 10263 10261 10259 10259 10258 10255 10253 10253 10252 10252 10252 10253 10253 10252 10251 10251 10252 10251 10249 10247 10247 10247 10247 10247 10248 10247 10245 10245 10244 10243 10242 10242 10242 10242 10242 10241 10241 10240 10240 10240 10240 10241 10242 10244 10246 10248 10250 10251 10252 10251 10250 10251 10253 10255 10258 10259 10259 10257 10256 10255 10256 10257 10258 10260 10262 10263 10264 10266 10268 10270 10271 10272 10274 10276 10278 10280 10281 10282 10283 10285 10286 10288 10291 10294
10249 10251 10252 10251 10248 10246 10246 10243 10239 10238 10238 10239 10241 10241 10240 10240 10240 10241 10241 10241 10240 10237 10236 10236 10236 10237 10237 10235 10234 10234 10234 10232 10232 10231 10230 10231 10231 10231 10231 10231 10230 10229 10229 10230 10232 10233 10235 10238 10240 10242 10242 10241 10240 10242 10244 10246 10248 10250 10249 10247 10246 10245 10246 10248 10250 10252 10254 10255 10256 10257 10259 10260 10261 10262 10264 10266 10269 10271 10272 10273 10274 10275 10277 10279 10282 10285
10241 10241 10240 10239 10238 10236 10233 10231 10228 10227 10227 10228 10228 10226 10226 10228 10229 10231 10231 10230 10229 10228 10226 10225 10225 10225 10226 10225 10224 10224 10223 10222 10221 10221 10221 10220 10221 10220 10220 10220 10220 10220 10220 10221 10221 10222 10225 10228 10231 10232 10233 10232 10232 10233 10235 10237 10238 10239 10238 10237 10236 10237 10239 10241 10244 10245 10246 10247 10248 10249 10250 10250 10251 10253 10255 10257 10260 10262 10264 10265 10266 10267 10269 10271 10274 10276
10233 10231 10229 10228 10227 10225 10223 10220 10219 10219 10219 10217 10214 10213 10213 10216 10218 10219 10220 10219 10219 10218 10216 10215 10214 10215 10215 10215 10213 10213 10213 10212 10211 10211 10212 10211 10211 10210 10209 10209 10210 10211 10212 10212 10212 10213 10216 10219 10221 10221 10223 10223 10224 10225 10227 10228 10228 10228 10228 10229 10229 10230 10232 10234 10236 10237 10237 10238 10239 10241 10241 10241 10243 10245 10247 10249 10251 10253 10255 10257 10258 10260 10261 10263 10264 10267
10223 10221 10219 10218 10217 10215 10213 10211 10210 10211 10210 10205 10202 10202 10203 10204 10206 10207 10207 10207 10207 10206 10204 10204 10204 10205 10205 10204 10203 10203 10204 10204 10202 10202 10202 10202 10201 10200 10199 10200 10201 10202 10203 10203 10204 10205 10208 10210 10211 10212 10213 10214 10214 10215 10217 10218 10218 10219 10220 10222 10223 10224 10226 10227 10228 10229 10230 10230 10231 10232 10232 10233 10235 10237 10239 10241 10243 10245 10247 10249 10250 10252 10253 10254 10256 10259
10213 10211 10210 10210 10209 10206 10203 10200 10202 10204 10201 10194 10192 10194 10195 10195 10196 10197 10196 10194 10193 10193 10193 10194 10194 10194 10194 10194 10194 10194 10195 10195 10192 10192 10193 10194 10192 10191 10191 10191 10192 10193 10194 10194 10195 10197 10198 10200 10202 10204 10205 10205 10205 10206 10207 10208 10209 10211 10214 10215 10216 10217 10219 10221 10221 10221 10221 10221 10222 10223 10223 10225 10229 10231 10233 10235 10236 10238 10239 10240 10242 10243 10245 10247 10249 10251
10203 10202 10201 10201 10199 10196 10192 10191 10191 10192 10190 10185 10184 10185 10185 10186 10188 10188 10185 10183 10182 10182 10183 10184 10185 10184 10184 10184 10184 10184 10185 10185 10182 10182 10183 10184 10182 10182 10182 10183 10183 10184 10184 10184 10186 10188 10189 10191 10194 10196 10196 10196 10196 10197 10199 10201 10202 10204 10205 10207 10208 10210 10211 10212 10213 10213 10213 10213 10214 10215 10217 10220 10222 10224 10225 10227 10229 10230 10231 10231 10233 10236 10238 10240 10242 10244